星链-30122 (STARLINK-30122 )

导读 | 豆包AI

STARLINK-30122是美国SpaceX公司星链(Starlink)星座的成员,于2023年5月19日发射入轨。星链星座旨在为全球提供覆盖广泛的高速宽带互联网服务,该卫星采用平板设计,搭载氪工质霍尔推进器,具备自主避撞能力,设计使用寿命约5-7年,退役后会主动离轨再入大气层烧毁,目前仍在低轨轨道正常运行,为全球互联网覆盖提供支持。

基本信息
目录编号:
56688
目录名称:
STARLINK-30122
国际标识:
2023-067A
轨道中心:
EARTH
卫星名称:
星链-30122
卫星全名:
星链-30122 (STARLINK-30122 )
卫星状态:
在轨 (已飞行1031 天)
发射日期:
2023-05-19 UTC
国别 :
美国 (US)
星等 :
--
轨道信息
数据来源 国际轨道数据
星历时间: 2026-03-15T19:21:50+0800
10小时前
查看轨道信息
半长轴: 6937.227km
偏心率: 0.0001184
轨道倾角: 43.003°
近地点辐角 251.545°
升交点赤经 243.552°
平近点角 108.526°
近地点: 558.268km
远地点: 559.912km
周期: 95.838分钟
每日圈数: 15.025329
详细信息
固有亮度:
5
最大亮度:
0.3
卫星平台:
Starlink v2.0 mini
覆盖范围:
全球
运营商:
太空探索技术公司
运营商所在国:
美国
制造商(研发单位):
太空探索技术公司
制造商所在国:
美国
使用方式:
暂无
卫星简介
星链(Starlink)计划是由太空探索技术公司(SpaceX)提出的一个巨型低轨卫星互联网星座项目,计划在2019年至2024年间在太空搭建由约1.2万颗卫星组成的“星链”网络,其中1584颗将部署在地球上空550千米处的近地轨道,并从2020年开始工作。该卫星仍在工作。
2D轨道图
3D轨道图
轨道高度分析图
轨道倾角分析图
轨道综合分析图
查看轨道综合分析图